To NAV CANADA Home Page Login to a new session Search on AWWS site Feedback and Comments Disclaimer Vers la page française équivalente Tips FAQ What's new on the site To the Forecasts and Observations / NOTAM section To "File a Flight Plan" website Publications and other links Update of the User's profile FIC Telephone Numbers My Weather Data Folder Route Weather Data Regional Weather Data Local Weather Data To the Forecasts and Observations / NOTAM section
Request Generated 12/04/2016 at 22:24:33 UTC . Weather information available at that time is displayed.

METAR/TAF

KANGIRSUK/QC    

LWIS CYAS 042200Z AUTO 31009KT M09/M12 A2986=
LWIS CYAS 042100Z AUTO 30010KT M08/M12 A2986=
LWIS CYAS 042000Z AUTO 30009KT 250V320 M08/M11 A2986=

CYAS - No TAF is issued for this station

Your time UTC time
Weather data provided by Environment Canada and NAV CANADA